Regional Weather Roundup
Issued by NWS

Home | Current Version | Previous Version | Graphics & Text | Print | Product List | Glossary Off
Versions: 1 2 3 4 5 6 7 8 9 10 11 12 13 14 15 16 17 18 19 20 21 22 23 24 25 26 27 28 29 30 31 32 33 34 35 36 37 38 39 40 41 42 43 44 45 46 47 48 49 50

000
ASUS43 KDMX 260001
RWRIA

WEATHER ROUNDUP FOR IOWA
NATIONAL WEATHER SERVICE DES MOINES IA
700 PM CDT SUN JUN 25 2017

NOTE: "FAIR" INDICATES FEW OR NO CLOUDS BELOW 12,000 FEET WITH NO
SIGNIFICANT WEATHER AND/OR OBSTRUCTIONS TO VISIBILITY.

* - THESE STATIONS ARE NOT NWS STATIONS...THUS NOT UNDER NWS
QUALITY CONTROL.  THEY ALSO DO NOT REPORT WEATHER SUCH
AS PRECIPITATION OR FOG.

IAZ001>003-012>014-020>022-031>034-043>046-260100-
   NORTHWEST IOWA

CITY           SKY/WX    TMP DP  RH WIND       PRES   REMARKS
CARROLL *      SUNNY     73  39  29 NW12G18   30.20F
CHEROKEE *     MOSUNNY   70  42  36 NW9       30.21S
DENISON *      SUNNY     72  41  33 NW9       30.23S
LE MARS *      SUNNY     72  43  35 NW6       30.22S
ORANGE CITY *  SUNNY     72  45  37 NW5       30.22S
SHELDON *      MOSUNNY   70  41  35 MISG      30.20S
SIOUX CITY     SUNNY     74  42  31 N6        30.22S
6HR MIN TEMP:  70; 6HR MAX TEMP:  76;

SPENCER        MOSUNNY   71  41  33 N10       30.21S
6HR MIN TEMP:  67; 6HR MAX TEMP:  74;

STORM LAKE *     N/A     70  39  32 NW10G18   30.22R
$$

IAZ055>058-069>071-079>083-090>094-260100-
   SOUTHWEST IOWA

CITY           SKY/WX    TMP DP  RH WIND       PRES   REMARKS
ATLANTIC *     SUNNY     72  41  33 NW7       30.22S
AUDUBON *      SUNNY     72  37  28 NW7       30.22F
CLARINDA *     SUNNY     73  43  33 NW8       30.25S
COUNCIL BLFS * SUNNY     73  43  33 W6        30.22F
CRESTON *      SUNNY     72  41  33 NW12      30.23F
HARLAN  *      SUNNY     72  41  33 NW10      30.25F
LAMONI         SUNNY     72  44  36 NW10      30.22F
6HR MIN TEMP:  70; 6HR MAX TEMP:  74;

RED OAK *      SUNNY     73  45  35 N6G14     30.23S
SHENANDOAH *   SUNNY     73  45  35 NW6       30.23F
$$

IAZ047>049-059>061-072>074-084-260100-
   CENTRAL IOWA

CITY           SKY/WX    TMP DP  RH WIND       PRES   REMARKS
AMES           SUNNY     72  41  32 NW13      30.19S
6HR MIN TEMP:  69; 6HR MAX TEMP:  74;

ANKENY *       SUNNY     72  43  35 NW9G16    30.20S
BOONE *        SUNNY     72  39  30 NW13G20   30.19R
CHARITON *     SUNNY     72  43  35 NW12      30.20F
DES MOINES     MOSUNNY   73  42  32 NW12      30.19F
6HR MIN TEMP:  70; 6HR MAX TEMP:  75;

GRINNELL*      MOSUNNY   71  40  32 NW15      30.19F
KNOXVILLE *    MOSUNNY   72  43  35 NW9G17    30.18F
MARSHALLTOWN   SUNNY     70  43  37 NW15      30.17S
6HR MIN TEMP:  67; 6HR MAX TEMP:  72;

NEWTON *       MOSUNNY   70  41  35 NW15      30.19S
PELLA *        MOSUNNY   72  42  33 NW7       30.20F
PERRY *          N/A     72  38  29 NW8       30.20S
$$

IAZ004>006-015-016-023>025-035-036-260100-
   NORTH CENTRAL IOWA

CITY           SKY/WX    TMP DP  RH WIND       PRES   REMARKS
ALGONA *       MOSUNNY   68  39  34 NW12G24   30.20S
CLARION *        N/A     70  39  32 N16G23    30.19R
ESTHERVILLE    CLOUDY    66  41  40 NW13G21   30.20S
6HR MIN TEMP:  64; 6HR MAX TEMP:  69;

FORT DODGE *   SUNNY     70  41  35 NW8       30.21R
MASON CITY     MOSUNNY   68  39  34 NW17G28   30.19R
6HR MIN TEMP:  64; 6HR MAX TEMP:  70;

FOREST CITY *    N/A     68  27  21 NW14G21   30.19R
WEBSTER CITY * SUNNY     70  39  32 NW14      30.17S
IOWA FALLS *     N/A     70  40  33 NW17      30.19S
$$

IAZ007>011-017>019-026>030-037>042-050>054-066-260100-
   NORTHEAST IOWA

CITY           SKY/WX    TMP DP  RH WIND       PRES   REMARKS
CEDAR RAPIDS   SUNNY     69  43  38 NW18G25   30.15S
6HR MIN TEMP:  64; 6HR MAX TEMP:  71;

CHARLES CITY * MOSUNNY   66  41  39 NW12G18   30.16S
CLINTON *      PTSUNNY   67  50  54 NW12      30.15S
DECORAH *      MOSUNNY   64  46  52 NW13      30.13S
DUBUQUE        CLOUDY    65  47  52 NW15      30.14F
6HR MIN TEMP:  58; 6HR MAX TEMP:  66;

MONTICELLO *   SUNNY     66  48  52 NW10      30.14S
OELWEIN *      MOSUNNY   66  45  45 NW14      30.16S
WATERLOO       SUNNY     69  39  33 NW13G20   30.15S
6HR MIN TEMP:  63; 6HR MAX TEMP:  71;

$$

IAZ064-065-067-068-078-260100-
   EAST CENTRAL IOWA

CITY           SKY/WX    TMP DP  RH WIND       PRES   REMARKS
DAVENPORT      MOSUNNY   67  48  50 NW9       30.16S
6HR MIN TEMP:  65; 6HR MAX TEMP:  69;

IOWA CITY      MOSUNNY   71  44  37 NW12      30.17S
6HR MIN TEMP:  68; 6HR MAX TEMP:  74;

MT. PLEASANT * MOSUNNY   71  38  30 NW10G16   30.18S
MUSCATINE *    MOSUNNY   72  45  37 NW14G21   30.17R
QUAD CITIES    MOSUNNY   70  48  45 NW8       30.15S
6HR MIN TEMP:  68; 6HR MAX TEMP:  71;

$$

IAZ062-063-075>077-085>089-095>099-260100-
   SOUTHEAST IOWA

CITY           SKY/WX    TMP DP  RH WIND       PRES   REMARKS
BURLINGTON     MOSUNNY   72  44  36 NW9       30.17S
6HR MIN TEMP:  69; 6HR MAX TEMP:  75;

FAIRFIELD *    MOSUNNY   70  41  35 W10G20    30.18S
FORT MADISON * MOSUNNY   73  45  35 W14G20    30.19S
KEOKUK *       MOSUNNY   72  45  37 NW10G16   30.18S
OSKALOOSA *      N/A     70  42  36 NW13      30.19S
OTTUMWA        SUNNY     72  43  35 W12       30.19S
6HR MIN TEMP:  71; 6HR MAX TEMP:  75;

WASHINGTON *   MOSUNNY   72  43  35 NW17      30.19R
$$

ABBREVIATIONS USED IN REMARKS
   TC - TEMPERATURES IN CELSIUS
  WCI - WIND CHILL INDEX
   HX - HEAT INDEX
  VSB - VISIBILITY
$$




USA.gov is the U.S. government's official web portal to all federal, state and local government web resources and services.